ATLAS AGENA B DEB, 630

Orbit data source: Space-Track

ATLAS AGENA B DEB, 630 is space debris in LEO originally from a launch on Fri, 19 Jul 1963 UTC launched from the Air Force Western Test Range (AFWTR). Debris objects in space refer to the collection of defunct objects orbiting the Earth. Examples of debris include non-operational satellites, rocket bodies, and fragments generated from explosions, collisions, or faulty payload assembly.

Loading next visibility...
Identifier
630, 1963-030C
Orbit
LEO
Country
Flag of USUS
Related business
Manufacturer
Unknown
Mission
Spacecraft
Bus & Motor
Unknown
Mass
~10 kg wet, ~10 kg dry
Launch date (UTC)
1963-07-19 (62 years ago)
Launch vehicle
Unknown
Launch site
Air Force Western Test Range (AFWTR)
Object type
Payload
Rocket body
Debris
Shape & HBR
Unknown
Radar Cross Section
Medium (>0.1 m² and <1 m²)

Expand to show TLE details & history
Last TLE update: 8 hours ago

TLE from 8 hours ago
0 ATLAS AGENA B DEB
1   630U 63030C   25318.65554978 -.00000000  00000-0 -15373-2 0  9992
2   630  88.4503 214.7537 0053550  98.6513 262.0409  8.59861921956392
Epoch: 2025-11-14T15:43Z
TLE epoch observation values (Epoch: 2025-11-14T15:43:59.500Z)
Latitude
-0.0001°
Longitude
-75.24014°
Altitude
3,696.073 km
Speed
6.288 km/s
True Right ascension
14h 19m 00s
True Declination
0° 00' 00"
Sunlit
Object was in daylight at epoch
Visualization orbit readout
Latitude
Unknown
Longitude
Unknown
Altitude
Unknown
Speed
Unknown
Apparent Right ascension
Unknown
Apparent Declination
Unknown
Sunlit
N/A
Visualization observer readout
Local Sidereal Time
20:28:22
Azimuth
Unknown
Elevation
Unknown
Doppler factor
Unknown
Orbital elements
Apogee altitude
3,737.848 km
Perigee altitude
3,630.083 km
Semi-major axis
10,062.103 km
Eccentricity
0.00536
Inclination
88.4503°
RAAN
214.7537°
Arg. of periapsis
98.6513°
True anomaly
261.43375°
Mean anomaly
262.0409°
Eccentric anomaly
261.73727°
Mean motion
2.15035 °/min
Orbital period
167.41 mins
BSTAR
-0.0015373
Loading maneuver chart data...
Computing Atmospheric mass density...
Loading historical data...
Loading historical data...
Loading historical data...
Loading historical data...
Loading historical data...
Loading historical data...
Loading historical data...

Documentation

Showing up to 5 results
|